TABLETSAT AURORA

Satellite information

Favourite Embed

Satellite Type and Status

PAYLOADIN ORBIT

Key statistics

Satellite TABLETSAT AURORA at a glance.

Uptime

4199

Days in orbit

Revolutions

≈ 15.1

Per day

Orbit

SSO

Sun Synchronous Orbit

Inclination

98.1

Latest

Satellite identification and parameters

Extended collection of information and parameters for TABLETSAT AURORA.

Object identification

Identified? True

Debris? False

Object name: TABLETSAT AURORA

International designator: 2014-033H

Object number (NORAD): 40017

Object ID (CCSDS): 40017

Country: COMMONWEALTH OF INDEPENDENT STATES (CIS)

Current information (Y/N): Y

RCS size: MEDIUM

Orbital parameters

Period: 95.072 minutes

Inclination: 98.05 deg

SMA: 6900.227 km

Apoapsis: 531.329 km

Periapsis: 512.854 km

RAAN: 49.443 deg

Eccentricy: 0.0013387

Argument of periapsis: 115.7715 deg

Mean anomaly: 244.4898 deg

Mean motion: 15.14634081 rev/day

Mean motion (dot): 0.00005921 rev/day2

B* drag term: 0.00032370615 1/REarth

Two-line elements (TLE)

Creation date: Dec. 17, 2025, 2:25 a.m.

Reference frame: TEME

Reference center: EARTH

Epoch: Dec. 16, 2025, 10:49 p.m. UTC

TLE line 0: 0 TABLETSAT AURORA

TLE line 1: 1 40017U 14033H 25350.95107322 .00005921 00000-0 32371-3 0 9993

TLE line 2: 2 40017 98.0500 49.4430 0013387 115.7715 244.4898 15.14634081627590

Live tracking on map

Real-time ground track for satellite TABLETSAT AURORA.

In-orbit conjunctions

There are no conjunctions computed for TABLETSAT AURORA, at the moment. Check back to stay up to date, as we update our databases every day.

Go to all conjunctions

Associated space launch

TABLETSAT AURORA was lifted into orbit during the mission ‘Dnepr 1 | Multipayload, 37 satellites.’, on board a Dnepr space rocket.

The launch took place on June 19, 2014, 7:11 p.m. from 370/13.

For more information about the launch, click the button.

Launch to space Dnepr 1 | Multipayload, 37 satellites.
Dnepr 1 | Multipayload, 37 satellites.

Agency: N/A

Status: Launch Successful

Launch date: June 19, 2014, 7:11 p.m. UTC

Rocket: Dnepr

Launch pad: 370/13

Location: Dombarovskiy, Russian Federation

...

Latest news about this satellite

There are no fresh news available about this satellite. Check back as we update our databases every day.


Newsletter sign-up

Weekly statistics, charts and insights to help you stay on top of the space industry.